1st Responders/1st Detectors/Storm Spotters Weather Summary for Marion County, KY

Forecast Maps


Reg. NEXRAD Animation


National Fire Danger: Day 1 & 2 Map

Current NWS Watch/Warnings

SPC Convective Day 1 Outlook


Day 2 Outlook

(Click images to enlarge|Page will refresh every 5 minutes)
UK Ag. Weather Center Desktop Severe Weather Service[HERE]
Marion County, KY Hazardous Weather Outlook Webcast
(9 AM to 9 PM Mon-Fri)
[Fast]
[Dial-up]


UKAWC 1st Detectors/1st Responders Precision Weather Forecast For MARION County, Kentucky
(based on the NWS County Digital Forecast)

ISSUED AT 06:00 UTC ON WEDNESDAY DEC 19 2018
DAY WEDNESDAY
EDT 3HR 3A 4A 5A 6A 7A 8A 9A 10A 11A NOON 1P 2P 3P 4P 5P 6P 7P
MAX/MIN -- -- -- -- -- 32° -- -- -- -- -- -- -- -- -- -- 56°
TEMP 34° 34° 34° 34° 34° 34° 34° 38° 41° 45° 50° 54° 56° 56° 56° 52° 49°
SKY COVER 17% 27% 39% 28% 21% 16% 14% 18% 14% 17% 20% 23% 28% 34% 39% 47% 55%
Clouds
DEW PT 29° 29° 29° 29° 29° 29° 31° 31° 34° 34° 36° 38° 38° 38° 38° 38° 38°
RH 82% 81% 81% 82% 81% 84% 84% 78% 72% 64% 58% 54% 50% 49% 53% 56% 62%
POP 12HR -- -- -- -- -- 0% -- -- -- -- -- -- -- -- -- -- --
RAIN/SNOW (liq.equ) -- -- -- -- -- 0.00in -- -- -- -- -- 0.00in -- -- -- -- --
SNOWFALL -- -- -- -- -- 0in -- -- -- -- -- 0in -- -- -- -- --
WIND SPEED(MPH) 2 2 2 2 2 2 2 5 6 7 7 7 7 6 6 6 6
WIND Gust(MPH) 5 5 5 5 5 5 5 7 9 8 8 10 8 7 8 7 7
WIND DIR SE SE SE SE S S S S S S SW SW SW S S S S
DEW Frost Frost Frost Frost Frost Frost Frost Frost -- -- -- -- -- -- -- -- --
HeatIndex 31 31 31 31 31 31 32 34 38 45 50 54 56 56 56 52 49
Rain -- -- -- -- -- -- -- -- -- -- -- -- -- -- -- -- --
WIND CHILL -- -- -- -- -- -- -- 35° 37° 41° -- -- -- -- -- -- --
SPRAY COND
DRY COND
LIVESTOCK COLDSTRESS



DAY THURSDAY FRIDAY SATURDAY SUNDAY MONDAY TUESDAY
EDT 6HR 8P 9P 10P 11P MIDN 1A 2A 3A 4A 5A 6A 7A 8A 9A 10A 11A NOON 1P 2P 5P 8P 11P 2A 5A 8A 11A 2P 5P 8P 2A 8A 2P 8P 2A 8A 2P 8P 2A 8A 2P 8P 2A 8A 2P 8P
MAX/MIN -- -- -- -- -- -- -- -- -- -- -- -- 43° -- -- -- -- -- -- 47° -- -- -- -- 40° -- -- 40° -- -- 29° 43° -- -- 31° 47° -- -- 31° 45° -- -- 32° 49° --
TEMP 47° 45° 45° 45° 45° 45° 43° 43° 43° 43° 43° 43° 43° 43° 45° 45° 45° 47° 47° 47° 47° 47° 45° 43° 40° 38° 38° 36° 34° 32° 29° 43° 40° 36° 32° 45° 41° 34° 31° 45° 40° 34° 34° 49° 45°
SKY COVER 63% 72% 79% 83% 84% 88% 89% 90% 91% 92% 93% 94% 98% 97% 97% 97% 97% 99% 99% 99% 99% 99% 99% 99% 99% 99% 98% 97% 90% 64% 48% 30% 28% 48% 45% 56% 47% 28% 28% 36% 32% 40% 47% 61% 66%
Clouds
DEW PT 38° 38° 38° 38° 38° 38° 38° 40° 40° 40° 40° 40° 40° 40° 40° 41° 43° 43° 43° 43° 43° 43° 41° 40° 40° 38° 36° 34° 31° 27° 25° 27° 29° 29° 29° 31° 31° 27° 27° 27° 27° 27° 29° 36° 38°
RH 70% 73% 76% 76% 76% 78% 82% 85% 89% 92% 92% 92% 88% 88% 85% 89% 88% 89% 85% 82% 89% 85% 89% 89% 100% 99% 96% 88% 88% 78% 81% 54% 62% 75% 88% 58% 67% 75% 81% 49% 59% 71% 78% 62% 78%
POP 12HR 2% -- -- -- -- -- -- -- -- -- -- -- 50% -- -- -- -- -- -- -- 90% -- -- -- 93% -- -- -- 84% -- 14% -- 1% -- 3% -- 8% -- 6% -- 2% -- 2% -- 23%
RAIN/SNOW (liq.equ) 0.00in -- -- -- -- -- 0.00in -- -- -- -- -- 0.03in -- -- -- -- -- 0.12in -- 0.25in -- 0.25in -- 0.16in -- 0.13in -- 0.03in -- -- -- -- -- -- -- -- -- -- -- -- -- -- -- --
SNOWFALL 0in -- -- -- -- -- 0in -- -- -- -- -- 0in -- -- -- -- -- 0in -- 0in -- 0in -- 0in -- 0in -- 0in -- -- -- -- -- -- -- -- -- -- -- -- -- -- -- --
WIND SPEED(MPH) 6 6 7 7 7 6 6 6 6 6 6 5 5 5 5 5 5 6 6 6 6 6 7 8 10 14 14 14 10 7 7 7 7 6 6 7 7 6 2 5 5 5 6 8 7
WIND DIR S S S S S S S S S S S SE SE SE SE E E E E NE NE N N N N NW NW NW NW W W SW SW SW SW W W W W SW SE SE S SW S
HeatIndex 47 45 45 45 45 41 40 40 39 39 39 40 40 41 42 42 45 47 47 47 47 47 41 38 34 29 29 28 26 25 23 38 36 32 27 45 36 29 28 42 38 31 29 49 40
Rain -- -- -- -- -- -- Chance Chance Chance Chance Chance Chance Likely Likely Likely Likely Likely Likely Definite Definite Definite Definite Definite Definite Definite Definite Likely Likely -- -- -- -- -- -- -- -- -- -- -- -- -- -- Slight Chance Slight Chance Slight Chance
WIND CHILL -- 42° 41° 41° 41° 42° 39° 39° 39° 39° 39° 40° 40° 40° 43° 43° 43° -- -- -- -- -- 41° 38° 34° 30° 30° 27° 26° 26° 22° 39° 35° 31° 27° 41° 36° 29° -- 43° 37° 30° 29° -- 41°
SPRAY COND
DRY COND
LIVESTOCK COLDSTRESS

Click on individual weather variable above in left-hand column (ie., TEMP, RH, QPF 12HR) to view state forecast maps






NWS 48 Hr. Forecast Maps,

Regional Hourly Observations For MARION County, Kentucky
Issued at 100 AM EST WED DEC 19 2018
SOUTHEAST KENTUCKY
  
CITY           SKY/WX    TMP DP  RH WIND       PRES   REMARKS
JACKSON        FAIR      34  25  69 E3        30.09F                  
LONDON         FAIR      30  28  92 CALM      30.09F                  
SOMERSET       FAIR      30  30 100 CALM      30.10F                  
MIDDLESBORO    FAIR      29  29 100 CALM      30.11F                  
MONTICELLO     FAIR      25  22  88 NE10      30.10F WCI  15          


Current NOWCAST not available:
Nowcasts are not issued routinely during fair weather. Only when
precipitation or other significant weather is occuring in this county will these
forecasts be issued. Currently, there is no short term forecast in effect.


Fire Weather Forecast For MARION County, KY
Provided by the National Weather Service:

Issued at: Wed Dec 19 01:05:01 EST 2018


                      Today        Tonight      Wed          

CLOUD COVER           MClear       MClear       PCldy        
PRECIP TYPE           None         None         None         
CHANCE PRECIP (%)     0            0            0            
TEMP (24H TREND)      49 (-3)      30 (+1)      59           
RH % (24H TREND)      45 (-8)      95 (+2)      45           
20FTWND-VAL/AM(MPH)   Lgt/Var                   Lgt/Var      
20FTWND-RDG/PM(MPH)   Lgt/Var      Lgt/Var      S  5         
PRECIP AMOUNT         0.00         0.00         0.00         
MIXING HGT(FT-AGL/MSL)2188                      2252         
TRANSPORT WND (MPH)   E  7                      SW 14        
VENT RATE (KT-FT)     13377                     27520        
DISPERSION            Poor                      Poor         
DSI                   STBL         STBL         STBL         
LAL                   1            1            1            
HAINES INDEX          4            4            5            
ADI EARLY             12 POOR      4 VERY POOR  34 FAIR      
ADI LATE              16 GEN POOR  12 POOR      48 GEN GOOD  
MAX LVORI EARLY       7            6            8            
MAX LVORI LATE        3            7            3            

REMARKS...ADI IS ATMOSPHERIC DISPERSION INDEX BY LAVDAS.        
LVORI IS LOW VISIBILITY OCCURRENCE RISK INDEX.

.THURSDAY...Cloudy with rain showers. Lows in the lower 40s.
Highs in the lower 50s. Southeast winds around 5 mph. 
.FRIDAY...Rain showers. Lows in the lower 40s. Highs in the mid
40s. Northeast winds around 5 mph. 
.SATURDAY...Mostly cloudy. A 50 percent chance of rain showers.
Lows in the upper 20s. Highs in the lower 40s. Southwest winds
5 to 15 mph. 
.SUNDAY...Partly cloudy. Lows in the lower 30s. Highs in the
upper 40s. Southwest winds 5 to 10 mph. 
.MONDAY...Partly cloudy. Lows in the lower 30s. Highs in the mid
40s. West winds around 5 mph. 

SPC's Fire Weather Web Tool (Excellent!), SPC's Fire Weather Outlooks, NWS Fire Weather WEB, Fire Danger Class Map,
Keetch-Byram Drought Index, ROMAN Web, Haines Index ,
WFAS's 10-hr Dead Fuel Moist., WFAS's 100-hr Dead Fuel Moist., Probablity of Ignition, Visual blackness Map, Palmer Drought Index, HPC's Rainfall Forecast Maps


Hazardous Weather Outlook For MARION County, Kentucky
330 PM EST Tue Dec 18 2018 /230 PM CST Tue Dec 18 2018/

 DAY ONE  Tonight.

No hazardous weather is expected at this time.

 DAYS TWO THROUGH SEVEN  Wednesday through Monday.

No hazardous weather is expected at this time.

 SPOTTER INFORMATION STATEMENT  

Spotter activation is not expected at this time.

Latest MARION County, Kentucky Watches, Warnings and Advisories.
Additional Drought Info.: UKAWC Drought Page, Kentucky Drought Watch


7-Day Forecast For MARION County, KY

TONIGHT
Mostly clear. Lows in the lower 30s. East winds up to 5 mph shifting to the southeast after midnight.

WEDNESDAY
Mostly sunny. Highs in the upper 50s. South winds 5 to 10 mph.

WEDNESDAY NIGHT
Mostly cloudy with a 50 percent chance of rain. Lows in the lower 40s. South winds 5 to 10 mph.

THURSDAY
Rain. Highs in the upper 40s. East winds around 5 mph. Chance of rain 90 percent.

THURSDAY NIGHT
Rain. Lows around 40. North winds 5 to 10 mph. Chance of rain 90 percent.

FRIDAY
Rain. Highs in the lower 40s. Chance of rain 90 percent.

FRIDAY NIGHT
Partly cloudy. Lows in the upper 20s.

SATURDAY
Partly cloudy. Highs in the lower 40s.

SATURDAY NIGHT
Partly cloudy. Lows in the lower 30s.

SUNDAY
Partly cloudy. Highs in the upper 40s.

SUNDAY NIGHT
Partly cloudy. Lows around 30.

MONDAY
Partly cloudy. Highs in the mid 40s.

MONDAY NIGHT
Partly cloudy. Lows in the lower 30s.

CHRISTMAS DAY
Partly cloudy with a 20 percent chance of rain. Highs around 50.

Ag Weather Center, Department of Biosystems & Agricultural Engineering, University of Kentucky